Regional Weather Roundup
Issued by NWS

Home | Current Version | Previous Version | Graphics & Text | Print | Product List | Glossary Off
Versions: 1 2 3 4 5 6 7 8 9 10 11 12 13 14 15 16 17 18 19 20 21 22 23 24 25 26 27 28 29 30 31 32 33 34 35 36 37 38 39 40 41 42 43 44 45 46 47 48 49 50

000
ASUS43 KMPX 190610
RWRMN
WEATHER ROUNDUP FOR MINNESOTA
NATIONAL WEATHER SERVICE TWIN CITIES/CHANHASSEN MN
100 AM CDT FRI SEP 19 2014


NOTE: "FAIR" INDICATES FEW OR NO CLOUDS BELOW 12,000 FEET WITH NO
SIGNIFICANT WEATHER AND/OR OBSTRUCTIONS TO VISIBILITY. N/A MEANS
CURRENT SKY AND/OR WEATHER CONDITIONS ARE NOT AVAILABLE.

MNZ060>063-068>070-190700-
   Twin Cities Metro

CITY           SKY/WX    TMP DP  RH WIND       PRES   REMARKS
TWIN CITIES    CLEAR     59  52  77 SE12      29.99S
6HR MIN TEMP:  59; 6HR MAX TEMP:  70;

ST PAUL        CLEAR     59  55  87 S10       30.00S
CRYSTAL        CLEAR     61  52  72 S10       29.96F
BLAINE         CLEAR     63  55  77 S13       29.97F
LAKEVILLE      CLEAR     54  52  94 S5        30.00F
EDEN PRAIRIE   CLEAR     58  53  84 SE10      29.97F
6HR MIN TEMP:  58; 6HR MAX TEMP:  65;

SOUTH ST PAUL  CLEAR     60  55  83 SE7       30.00S
LAKE ELMO      FAIR      59  55  88 S9        30.01S
$$
MNZ001>005-007-008-013>017-022>024-027-028-190700-
   Northwest Minnesota

CITY           SKY/WX    TMP DP  RH WIND       PRES   REMARKS
BEMIDJI        CLOUDY    60  53  78 S12       29.81S
HALLOCK        CLOUDY    68  57  68 S24G35    29.60S
ROSEAU         MOCLDY    63  55  77 S18       29.66F
WARROAD        MOCLDY    63  55  77 S17G24    29.68F
THIEF RVR FALL CLOUDY    66  54  63 S20       29.72S
CROOKSTON      CLOUDY    66  55  68 S26       29.72R
FOSSTON        CLOUDY    63  52  67 S18       29.76F
DETROIT LAKES  CLOUDY    64  52  63 S15G21    29.82S
MOORHEAD       CLOUDY    66  57  72 S13G22    29.77S
PARK RAPIDS    CLOUDY    59  53  80 S14       29.84F
MAHNOMEN       FAIR      63  52  67 S16       29.78S
$$
MNZ006-009>011-018-025>026-190700-
   North Central Minnesota

CITY           SKY/WX    TMP DP  RH WIND       PRES   REMARKS
BAUDETTE       CLOUDY    59  53  80 S14G23    29.75F
FLAG ISLAND    MOCLDY    59  55  88 S23       29.67F
INTL FALLS     CLOUDY    54  51  90 S9G17     29.81F
6HR MIN TEMP:  51; 6HR MAX TEMP:  58;

WASKISH        CLOUDY    59  54  82 S8G18     29.79S
BIG FORK       CLOUDY    55  52  88 S12G20    29.86F
LONGVILLE      CLOUDY    55  55 100 SE8       29.87F
GRAND RAPIDS   CLOUDY    54  50  87 S17       29.90F
CRANE LAKE     CLOUDY    50  48  93 S5        29.89F
ORR            CLOUDY    52  48  87 S12G20    29.86F
COOK           CLOUDY    52  50  93 S9G20     29.90F
WALKER         FAIR      59  53  81 S13       29.84F
$$
MNZ012-019>021-037-190700-
   Northeast Minnesota

CITY           SKY/WX    TMP DP  RH WIND       PRES   REMARKS
DULUTH         FAIR      53  49  86 S13       29.97F
6HR MIN TEMP:  46; 6HR MAX TEMP:  53;

ELY            CLOUDY    48  46  93 S7        29.94F
HIBBING        CLOUDY    53  50  89 S8        29.93F
EVELETH        CLOUDY    52  50  93 S12       29.95F
DULUTH HARBOR  MOCLDY    52  48  87 E8        29.99F
TWO HARBORS    CLOUDY    46  41  81 NE3       29.98F
SILVER BAY     PTCLDY    43  43 100 CALM      29.99S
GRAND MARAIS     N/A     49  43  80 NE3       30.02S
G MARAIS ARPRT CLOUDY    43  37  81 E6        30.01F
$$
MNZ029>031-032-039>041-046>048-054>057-064-190700-
   West Central Minnesota

CITY           SKY/WX    TMP DP  RH WIND       PRES   REMARKS
FERGUS FALLS   CLOUDY    64  50  59 S16G22    29.82S
WHEATON        CLOUDY    61  54  77 SE14G21   29.82S
MORRIS         MOCLDY    59  52  77 SE14      29.84F
ALEXANDRIA     MOCLDY    62  51  67 S15       29.88F
ELBOW LAKE     FAIR      61  51  71 S18       29.83F
WADENA         CLOUDY    61  50  67 S10       29.85F
GLENWOOD       MOCLDY    61  52  72 S17G23    29.89F
APPLETON       CLOUDY    63  54  72 S12       29.85F
BENSON         MOCLDY    59  52  77 S12       29.88F
ORTONVILLE     CLOUDY    61  54  77 SE8       29.84S
MADISON        CLOUDY    64  55  72 S10       29.86S
WILLMAR        FAIR      59  48  67 SE8       29.93S
$$
MNZ033>034-036-042>043-049>051-058-059-190700-
   Central Minnesota

CITY           SKY/WX    TMP DP  RH WIND       PRES   REMARKS
ST CLOUD       CLEAR     63  52  67 S13       29.93F
6HR MIN TEMP:  62; 6HR MAX TEMP:  69;

SAUK CENTRE    MOCLDY    58  49  74 S9        29.91S
PAYNESVILLE    MOCLDY    57  48  70 SE12G18   29.92F
AITKIN         MOCLDY    61  54  77 S7G17     29.90F
PINE RIVER     MOCLDY    57  54  88 S8        29.92S
BRAINERD       MOCLDY    58  53  84 S13       29.91F
STAPLES        MOCLDY    57  50  77 S10       29.87F
LONG PRAIRIE   FAIR      57  48  72 SE13      29.90S
LITTLE FALLS   PTCLDY    57  50  77 SE7       29.92S
LITCHFIELD     MOCLDY    61  52  72 SE6       29.94F
BUFFALO        CLEAR     61  52  72 SE7       29.96F
MAPLE LAKE     PTCLDY    61  55  78 S6        29.95F
$$
MNZ037-044-045-052-053-190700-
   East Central Minnesota

CITY           SKY/WX    TMP DP  RH WIND       PRES   REMARKS
PRINCETON      PTCLDY    59  55  88 SE7       29.96S
MORA           PTCLDY    55  52  88 S7        29.97F
CAMBRIDGE      PTCLDY    61  52  72 SE7       29.95F
RUSH CITY      MOCLDY    57  54  91 S7        29.98F
MOOSE LAKE     FOG       45  43  93 N3        29.95F VSB 1
HINCKLEY       FAIR      55  54  94 SE6       29.97F
CLOQUET        CLOUDY    48  46  93 SE5       29.97F
MCGREGOR       CLOUDY    54  52  94 SE10      29.93F
$$
MNZ071>073-080-081-089-090-097-098-190700-
   Southwest Minnesota

CITY           SKY/WX    TMP DP  RH WIND       PRES   REMARKS
MONTEVIDEO     MOCLDY    61  54  77 S13       29.89F
GRANITE FALLS  MOCLDY    59  53  79 SE9       29.91S
CANBY          CLOUDY    63  55  75 S12G20    29.88S
MARSHALL       MOCLDY    63  50  63 S18       29.88F
REDWOOD FALLS  PTCLDY    58  50  75 S12       29.92S
OLIVIA         PTCLDY    59  50  72 SE9       29.92S
PIPESTONE      MOCLDY    61  52  72 S14G21    29.91F
WINDOM         MOCLDY    61  54  77 S14G20    29.95S
WORTHINGTON    PTCLDY    57  54  88 S18G24    29.96R
JACKSON        PTCLDY    61  52  72 S16       29.97F
TRACY          PTCLDY    61  52  73 S13G20    29.91S
SLAYTON        MOCLDY    59  52  78 S13G20    29.94R
$$
MNZ065>067-074>077-082>085-091>093-190700-
   South Central Minnesota

CITY           SKY/WX    TMP DP  RH WIND       PRES   REMARKS
MANKATO        CLOUDY    59  48  67 S9        29.98S
NEW ULM        PTCLDY    57  52  82 S9        29.95F
ST JAMES       CLEAR     59  50  72 SE10      29.97F
FAIRMONT       MOCLDY    55  45  67 S10       29.98F
GLENCOE        MOCLDY    62  51  68 SE8       29.95F
FARIBAULT      CLEAR     61  52  72 SE7       30.01S
OWATONNA       CLEAR     57  52  82 SE7       30.02R
WASECA         CLEAR     55  46  71 SE6       30.02S
ALBERT LEA     CLEAR     57  54  88 S8        30.01S
$$
MNZ078>079-086>088-094>096-190700-
   Southeast Minnesota

CITY           SKY/WX    TMP DP  RH WIND       PRES   REMARKS
ROCHESTER      CLEAR     56  52  86 S9        30.05S
6HR MIN TEMP:  56; 6HR MAX TEMP:  65;

RED WING       CLEAR     61  54  77 SE8       30.02S
STANTON        CLEAR     59  53  80 S8        29.99F
DODGE CENTER   CLEAR     54  52  94 S7        30.03S
WINONA         CLEAR     55  52  88 SE3       30.07R
AUSTIN         CLEAR     55  52  88 S8        30.03S
PRESTON        CLEAR     55  55  97 S10       30.07R
$$
ABBREVIATIONS USED IN REMARKS
   TC - TEMPERATURES IN CELSIUS
  WCI - WIND CHILL INDEX
   HX - HEAT INDEX
  VSB - VISIBILITY
$$



USA.gov is the U.S. government's official web portal to all federal, state and local government web resources and services.